Location: Eurasberg
(48.3353°N, 11.0839°E)
Time: 13:59:34
(UTC+00:00)

Timation 1 Rocket - Pass Details

Date: 27 April 2026
Orbit: 895 x 908 km, 70.0° (Epoch: 14 May)

Event Time Altitude Azimuth Distance (km) Brightness Sun altitude
Exits shadow 22:12:42 66° 127° (SE) 988 4.2 -26.2°
Maximum altitude 22:12:55 67° 114° (ESE) 985 4.3 -26.2°
Drops below altitude 10° 22:18:52 10° 34° (NE) 2,602 7.2 -26.4°
Sets 22:21:24 0° 32° (NNE) 3,548 8.1 -26.5°
